[[{"header":{"parameterUnit":"m.s-1","parameterCategory":2,"la1":30.2991,"la2":30.254,"lo1":-89.0895,"lo2":-89.0444,"dy":0.0017,"dx":0.0017,"nx":28,"ny":28,"refTime":"2024-04-29T09:00:00:Z","depth":"0","parameterNumber":2,"parameterNumberName":"U-component_of_CURRENTS"},"data":[0,0,0,0,0,0,0,0,0,0,0,0,0,0,0,0,0,0,0,0,0,0,0,0,0,0,0,0,0,0,0,0,0,0,0,0,0,0,0,0,0,0,0,0,0,0,0,0,0,0,0,0,0,0,0,0,0,0,-0.2106,-0.2107,0,-0.214,-0.214,-0.214,-0.2118,-0.2117,-0.2116,-0.2116,-0.2056,-0.2055,-0.2054,0,0,0,0,0,0,0,0,0,0,0,0,0,-0.2027,-0.2028,-0.2106,-0.2107,-0.2108,-0.214,-0.214,-0.214,-0.2118,-0.2117,-0.2116,-0.2115,-0.2056,-0.2055,-0.2054,0,0,0,0,0,0,0,0,0,0,0,0,0,-0.2058,-0.2028,-0.2106,-0.2103,-0.2103,-0.214,-0.214,-0.214,-0.2118,-0.2117,-0.2116,-0.2115,-0.2057,-0.2055,-0.2054,-0.2068,0,0,-0.205,-0.2049,0,0,0,0,0,0,0,0,-0.2056,-0.206,-0.2103,-0.2103,-0.2104,-0.2126,-0.209,-0.2112,-0.2119,-0.2109,-0.2116,-0.2114,-0.2074,-0.2071,-0.2077,-0.2065,-0.2062,-0.205,-0.2049,-0.2048,-0.2048,0,0,0,0,0,0,0,-0.2054,-0.2059,-0.2116,-0.2104,-0.2104,-0.2101,-0.2104,-0.2094,-0.2093,-0.211,-0.2109,-0.2118,-0.2073,-0.2078,-0.2075,-0.2061,-0.205,-0.2048,-0.2048,-0.2047,-0.2111,-0.2114,0,0,0,0,0,0,-0.2057,-0.2057,-0.2115,-0.2118,-0.208,-0.2103,-0.2106,-0.2118,-0.2095,-0.2092,-0.2119,-0.2117,-0.2081,-0.2076,-0.2072,-0.2147,-0.2048,-0.2047,-0.2046,-0.2109,-0.2112,-0.2115,0,0,0,0,0,0,-0.2056,-0.2062,-0.2114,-0.209,-0.2097,-0.2106,-0.2119,-0.2119,-0.2123,-0.2104,-0.2098,-0.2123,-0.208,-0.2074,-0.2085,-0.2141,-0.2046,-0.2045,-0.2106,-0.211,-0.2113,-0.2257,0,0,0,0,0,0,-0.2053,-0.2061,-0.2066,-0.2091,-0.2099,-0.2146,-0.212,-0.212,-0.2132,-0.2129,-0.2105,-0.2099,-0.2079,-0.2087,-0.2083,-0.2138,-0.2044,-0.2103,-0.2108,-0.2112,-0.2249,-0.2265,-0.2279,0,0,0,0,0,-0.205,-0.2064,-0.2066,-0.2073,-0.2106,-0.2148,-0.2152,-0.2151,-0.2133,-0.2148,-0.2138,-0.21,-0.2115,-0.2088,-0.2083,-0.2139,-0.21,-0.2106,-0.2112,-0.2242,-0.2262,-0.2278,0,0,0,0,0,0,-0.2027,-0.2065,-0.2067,-0.209,-0.2121,-0.2145,-0.2155,-0.2156,-0.2161,-0.2153,-0.2125,-0.2119,-0.2152,-0.2123,-0.2095,-0.2172,-0.2104,-0.2109,-0.2205,-0.2223,-0.2238,-0.2249,-0.2043,0,0,0,0,0,-0.2028,-0.2047,-0.2086,-0.2102,-0.212,-0.2138,-0.2151,-0.2159,-0.217,-0.217,-0.2159,-0.2154,-0.2174,-0.2178,-0.2178,-0.2213,-0.2172,-0.2248,-0.2263,-0.2276,-0.2283,-0.2276,-0.2291,-0.2133,-0.2133,-0.2133,0,0,-0.2021,-0.2045,-0.2054,-0.2099,-0.2118,-0.2176,-0.2142,-0.2173,-0.2225,-0.2162,-0.2211,-0.2198,-0.2193,-0.2244,-0.2257,-0.2226,-0.23,-0.2283,-0.2295,-0.2294,-0.2284,-0.2299,-0.2312,-0.2137,-0.2136,-0.2136,0,0,-0.2038,-0.2044,-0.2078,-0.2119,-0.2164,-0.2189,-0.2202,-0.2237,-0.2253,-0.23,-0.2282,-0.2306,-0.2315,-0.2344,-0.2356,-0.2451,-0.2376,-0.2447,-0.2537,-0.2532,-0.2545,-0.2555,-0.2523,-0.253,-0.246,-0.246,-0.246,0,-0.2031,-0.2085,-0.2093,-0.2154,-0.2197,-0.2203,-0.227,-0.2303,-0.2338,-0.2361,-0.233,-0.238,-0.2375,-0.2459,-0.2505,-0.2488,-0.2451,-0.2471,-0.2551,-0.2561,-0.2569,-0.2533,-0.2539,-0.2468,-0.2467,-0.2466,-0.2465,0,-0.209,-0.2142,-0.2168,-0.2253,-0.2299,-0.2351,-0.2411,-0.2448,-0.2459,-0.2487,-0.2546,-0.2544,-0.2567,-0.2591,-0.2582,-0.2658,-0.2601,-0.2566,-0.2504,-0.2593,-0.255,-0.2553,-0.2478,-0.2476,-0.2473,-0.2472,0,0,-0.2052,-0.2185,-0.2194,-0.2258,-0.2357,-0.24,-0.2498,-0.2582,-0.263,-0.2662,-0.2719,-0.2784,-0.275,-0.2762,-0.2752,-0.277,-0.2811,-0.2704,-0.27,-0.2669,-0.2774,-0.2702,-0.2697,-0.278,-0.2782,-0.2783,-0.272,0,-0.2099,-0.2227,-0.2284,-0.241,-0.2486,-0.2542,-0.2631,-0.2705,-0.274,-0.2792,-0.2813,-0.2847,-0.2827,-0.2827,-0.2854,-0.2811,-0.2825,-0.283,-0.2693,-0.2689,-0.2613,-0.2701,-0.2598,-0.253,-0.2722,-0.2722,-0.2722,0,-0.2142,-0.2228,-0.2356,-0.2503,-0.2538,-0.2609,-0.2725,-0.2802,-0.2886,-0.2908,-0.2946,-0.2933,-0.2984,-0.2932,-0.2922,-0.2917,-0.2865,-0.2831,-0.2826,-0.2709,-0.2623,-0.2472,-0.2527,-0.252,-0.2726,-0.2725,-0.2725,0,-0.2115,-0.2276,-0.2376,-0.243,-0.2593,-0.2648,-0.2721,-0.2823,-0.2877,-0.2955,-0.297,-0.3019,-0.3003,-0.2984,-0.2913,-0.2912,-0.2866,-0.2845,-0.2735,-0.2727,-0.2589,-0.2567,-0.2617,-0.2838,-0.2838,-0.2839,-0.2839,0,-0.2148,-0.2224,-0.2364,-0.2422,-0.2519,-0.2637,-0.2726,-0.28,-0.2896,-0.2938,-0.2999,-0.3012,-0.301,-0.2976,-0.2931,-0.2832,-0.2869,-0.2765,-0.272,-0.2635,-0.262,-0.2562,-0.2579,-0.2836,-0.2837,-0.2837,-0.2838,0,-0.2102,-0.2204,-0.2311,-0.2468,-0.2509,-0.2565,-0.27,-0.2762,-0.2856,-0.2905,-0.2922,-0.2988,-0.2947,-0.2924,-0.2868,-0.282,-0.2708,-0.2705,-0.2597,-0.2541,-0.245,-0.2478,-0.244,-0.2376,-0.2595,-0.2593,-0.2591,0,-0.2093,-0.2146,-0.2291,-0.2334,-0.2396,-0.2496,-0.2563,-0.2706,-0.2757,-0.2869,-0.2872,-0.2882,-0.2854,-0.2768,-0.2693,-0.2604,-0.2604,-0.2463,-0.2468,-0.2452,-0.2449,-0.246,-0.241,-0.2335,-0.2331,-0.2328,-0.2326,0,-0.2049,-0.2086,-0.2161,-0.2245,-0.2314,-0.2395,-0.249,-0.2531,-0.2675,-0.2723,-0.2753,-0.275,-0.2692,-0.2579,-0.2483,-0.2411,-0.2419,-0.2399,-0.2414,-0.2292,-0.2273,-0.2184,-0.236,-0.23,-0.2302,-0.2304,-0.2306,-0.2307,-0.1969,-0.1989,-0.2068,-0.2133,-0.2207,-0.2252,-0.2264,-0.2365,-0.2416,-0.2444,-0.2544,-0.25,-0.2485,-0.2346,-0.229,-0.2171,-0.2213,-0.2113,-0.2156,-0.2175,-0.2105,-0.2221,-0.2094,-0.2095,-0.2097,-0.2098,-0.2099,0,-0.1863,-0.1898,-0.1956,-0.2017,-0.2032,-0.2113,-0.2178,-0.215,-0.2143,-0.222,-0.2219,-0.2218,-0.2132,-0.2133,-0.2051,-0.1965,-0.1919,-0.192,-0.1927,-0.1892,-0.2009,-0.1989,-0.1795,-0.1795,-0.1795,-0.1795,-0.1795,-0.1795,-0.1807,-0.181,-0.1842,-0.1814,-0.1849,-0.1799,-0.1795,-0.1764,-0.1781,-0.1756,-0.1788,-0.1843,-0.1891,-0.2073,-0.1987,-0.1895,-0.1862,-0.1788,-0.1826,-0.1939,-0.1961,-0.1982,-0.197,-0.1775,-0.1775,-0.1631,-0.163,-0.1629]},{"header":{"parameterUnit":"m.s-1","parameterCategory":2,"la1":30.2991,"la2":30.254,"lo1":-89.0895,"lo2":-89.0444,"dy":0.0017,"dx":0.0017,"nx":28,"ny":28,"refTime":"2024-04-29T09:00:00:Z","depth":"0","parameterNumber":3,"parameterNumberName":"V-component_of_CURRENTS"},"data":[0,0,0,0,0,0,0,0,0,0,0,0,0,0,0,0,0,0,0,0,0,0,0,0,0,0,0,0,0,0,0,0,0,0,0,0,0,0,0,0,0,0,0,0,0,0,0,0,0,0,0,0,0,0,0,0,0,0,-0.0087,-0.0086,0,0.001,0.0011,0.0012,0.0071,0.0072,0.0072,0.0072,0.0199,0.0202,0.0206,0,0,0,0,0,0,0,0,0,0,0,0,0,-0.0159,-0.0159,-0.0087,-0.0086,-0.0085,0.0009,0.0011,0.0012,0.0071,0.0072,0.0072,0.0072,0.0198,0.0202,0.0206,0,0,0,0,0,0,0,0,0,0,0,0,0,-0.0101,-0.0158,-0.0087,-0.0044,-0.004,0.0009,0.0011,0.0013,0.0071,0.0072,0.0072,0.0072,0.0197,0.0202,0.0206,0.0228,0,0,0.0221,0.0223,0,0,0,0,0,0,0,0,-0.0105,-0.0099,-0.0052,-0.0047,-0.0042,0.0028,0.0032,0.0086,0.0071,0.003,0.0072,0.0072,0.0144,0.0153,0.0171,0.0234,0.024,0.0221,0.0224,0.0226,0.0227,0,0,0,0,0,0,0,-0.0109,-0.0102,-0.0048,-0.0051,-0.0045,-0.0009,-0.0001,0.0043,0.0085,0.0033,0.0038,0.0047,0.0147,0.0166,0.0175,0.0241,0.0221,0.0225,0.0228,0.023,0.0384,0.0385,0,0,0,0,0,0,-0.0126,-0.0106,-0.0051,-0.0045,-0.0074,-0.0009,0.0001,0.0006,0.0084,0.0096,0.0047,0.005,0.0158,0.0169,0.0179,0.0239,0.0226,0.0231,0.0233,0.0383,0.0384,0.0386,0,0,0,0,0,0,-0.0128,-0.0122,-0.0055,-0.0074,-0.0063,-0.0008,-0.0002,0.0008,0.0027,0.0094,0.0106,0.0056,0.0159,0.0173,0.0231,0.0243,0.0233,0.0237,0.0381,0.0383,0.0385,0.0338,0,0,0,0,0,0,-0.013,-0.0123,-0.0128,-0.0075,-0.0062,-0.0034,-0.0002,0.0009,0.0032,0.0037,0.0106,0.0118,0.016,0.0224,0.0236,0.0249,0.0241,0.038,0.0382,0.0384,0.0338,0.0339,0.0339,0,0,0,0,0,-0.0133,-0.0142,-0.0129,-0.0122,-0.007,-0.0034,-0.0025,0.0017,0.0032,0.0036,0.0096,0.0116,0.0247,0.0228,0.0242,0.0257,0.0379,0.0382,0.0384,0.0338,0.0338,0.0339,0,0,0,0,0,0,-0.0179,-0.0135,-0.012,-0.0115,-0.0082,-0.0025,-0.0018,0.0011,0.006,0.0066,0.0129,0.0146,0.0201,0.0239,0.0217,0.0312,0.0317,0.0323,0.0278,0.0278,0.0278,0.026,0.0245,0,0,0,0,0,-0.0191,-0.0185,-0.0138,-0.0137,-0.0123,-0.0072,-0.0054,-0.0026,0.0025,0.0046,0.0097,0.0161,0.0224,0.0257,0.0309,0.0358,0.0397,0.038,0.038,0.038,0.0376,0.0466,0.0474,0.0395,0.0395,0.0395,0,0,-0.0211,-0.0185,-0.0184,-0.0146,-0.0117,-0.0101,-0.006,-0.0038,-0.0016,0.0052,0.0096,0.0156,0.0236,0.0295,0.0323,0.0328,0.0418,0.0383,0.0382,0.0379,0.047,0.0477,0.0484,0.0397,0.0396,0.0396,0,0,-0.0249,-0.0224,-0.0232,-0.0205,-0.0167,-0.0129,-0.0127,-0.0072,-0.0039,0.001,0.0074,0.0147,0.0224,0.0298,0.0343,0.0377,0.0412,0.0389,0.0378,0.0465,0.0472,0.0479,0.051,0.052,0.0394,0.0393,0.0393,0,-0.0277,-0.0279,-0.023,-0.0227,-0.0212,-0.0147,-0.0151,-0.0103,-0.0034,0.0002,0.0015,0.0171,0.023,0.0335,0.0346,0.0377,0.041,0.0366,0.0464,0.0471,0.0479,0.051,0.0521,0.0392,0.0392,0.0392,0.0392,0,-0.0312,-0.0317,-0.032,-0.0293,-0.0265,-0.0261,-0.019,-0.0153,-0.0106,-0.0048,0.0051,0.0151,0.0241,0.0281,0.0322,0.0414,0.0412,0.0446,0.0455,0.0483,0.0514,0.0527,0.0389,0.039,0.039,0.0391,0,0,-0.037,-0.0353,-0.0355,-0.0364,-0.0303,-0.029,-0.0239,-0.0173,-0.0134,-0.0045,0.0018,0.0147,0.0203,0.0259,0.0336,0.0421,0.0493,0.0445,0.0451,0.046,0.0644,0.0662,0.0677,0.0543,0.0546,0.0548,0.0633,0,-0.042,-0.0451,-0.0411,-0.0431,-0.0444,-0.0362,-0.0318,-0.0241,-0.016,-0.008,0.0056,0.0139,0.0196,0.0241,0.0336,0.0462,0.0529,0.0464,0.063,0.0634,0.0635,0.0695,0.0734,0.0817,0.0646,0.0648,0.065,0,-0.0465,-0.0484,-0.0523,-0.051,-0.0503,-0.0488,-0.0407,-0.0364,-0.0216,-0.0148,-0.0027,0.0073,0.0218,0.0255,0.0474,0.0426,0.0517,0.0613,0.0619,0.0663,0.0678,0.077,0.0846,0.102,0.0669,0.0668,0.0666,0,-0.0542,-0.0559,-0.0599,-0.0595,-0.0559,-0.0544,-0.0511,-0.0385,-0.034,-0.0192,-0.0135,0.0047,0.0135,0.0301,0.0485,0.0479,0.0715,0.0734,0.0834,0.0833,0.0914,0.0918,0.117,0.0875,0.0875,0.0875,0.0874,0,-0.0611,-0.0642,-0.0643,-0.0667,-0.0696,-0.0629,-0.0613,-0.0541,-0.0421,-0.0361,-0.0189,-0.0093,0.0153,0.0319,0.0476,0.0693,0.0706,0.0841,0.0876,0.0896,0.0897,0.1089,0.1141,0.0878,0.0877,0.0877,0.0876,0,-0.0689,-0.0689,-0.0741,-0.0737,-0.074,-0.0759,-0.0712,-0.0682,-0.0558,-0.0472,-0.043,-0.0194,0.0034,0.0272,0.0546,0.0675,0.0987,0.0947,0.0924,0.0956,0.1205,0.125,0.1478,0.1575,0.1074,0.1075,0.1076,0,-0.0731,-0.077,-0.0818,-0.0855,-0.0861,-0.0875,-0.0872,-0.0769,-0.0721,-0.0527,-0.0483,-0.0246,-0.0047,0.0357,0.0646,0.0932,0.1053,0.1097,0.1111,0.1241,0.132,0.1333,0.1398,0.1186,0.1188,0.1189,0.1191,0,-0.0816,-0.0831,-0.0878,-0.0967,-0.0997,-0.1021,-0.1002,-0.0981,-0.0838,-0.0727,-0.0534,-0.0358,0.0056,0.0443,0.0803,0.0966,0.1221,0.1135,0.1315,0.1469,0.146,0.1561,0.1059,0.1204,0.1203,0.1202,0.1201,0.1201,-0.0871,-0.0931,-0.0999,-0.1077,-0.1117,-0.1141,-0.1148,-0.1081,-0.0998,-0.0793,-0.0599,-0.0278,0.0281,0.0833,0.1025,0.1423,0.1357,0.153,0.1581,0.1586,0.1682,0.1175,0.1335,0.1335,0.1334,0.1334,0.1333,0,-0.0944,-0.101,-0.1101,-0.1181,-0.124,-0.1233,-0.1212,-0.1164,-0.1064,-0.0808,-0.0574,0.0096,0.0626,0.1114,0.1684,0.1877,0.192,0.1957,0.2021,0.2073,0.1686,0.1697,0.189,0.189,0.189,0.189,0.1889,0.1889,-0.0983,-0.1092,-0.1148,-0.1271,-0.132,-0.1362,-0.1349,-0.1229,-0.1033,-0.0608,-0.0203,0.0156,0.0858,0.1781,0.2294,0.2318,0.2496,0.2438,0.2541,0.2308,0.2273,0.2239,0.2268,0.2578,0.2579,0.2926,0.2929,0.2932]}],[{"header":{"parameterUnit":"m.s-1","parameterCategory":2,"la1":30.2991,"la2":30.254,"lo1":-89.0895,"lo2":-89.0444,"dy":0.0017,"dx":0.0017,"nx":28,"ny":28,"refTime":"2024-04-29T09:00:00:Z","depth":"2","parameterNumber":2,"parameterNumberName":"U-component_of_CURRENTS"},"data":[0,0,0,0,0,0,0,0,0,0,0,0,0,0,0,0,0,0,0,0,0,0,0,0,0,0,0,0,0,0,0,0,0,0,0,0,0,0,0,0,0,0,0,0,0,0,0,0,0,0,0,0,0,0,0,0,0,0,-0.1988,-0.1988,0,-0.2015,-0.2015,-0.2015,-0.1994,-0.1994,-0.1993,-0.1993,-0.1932,-0.1931,-0.193,0,0,0,0,0,0,0,0,0,0,0,0,0,-0.1914,-0.1915,-0.1988,-0.1988,-0.1989,-0.2015,-0.2015,-0.2015,-0.1995,-0.1994,-0.1993,-0.1992,-0.1932,-0.1931,-0.193,0,0,0,0,0,0,0,0,0,0,0,0,0,-0.1941,-0.1915,-0.1988,-0.1984,-0.1984,-0.2015,-0.2015,-0.2015,-0.1995,-0.1994,-0.1993,-0.1992,-0.1933,-0.1931,-0.1929,-0.1938,0,0,-0.1925,-0.1924,0,0,0,0,0,0,0,0,-0.1939,-0.1943,-0.1984,-0.1984,-0.1985,-0.2003,-0.1967,-0.1986,-0.1995,-0.1988,-0.1993,-0.1992,-0.195,-0.1947,-0.1951,-0.1935,-0.1932,-0.1924,-0.1923,-0.1923,-0.1922,0,0,0,0,0,0,0,-0.1937,-0.1942,-0.1995,-0.1985,-0.1985,-0.198,-0.1982,-0.197,-0.197,-0.1988,-0.1987,-0.1996,-0.1949,-0.1953,-0.1949,-0.1931,-0.1924,-0.1923,-0.1922,-0.1921,-0.1972,-0.1974,0,0,0,0,0,0,-0.1942,-0.194,-0.1994,-0.1996,-0.1963,-0.1982,-0.1985,-0.1996,-0.1972,-0.1969,-0.1996,-0.1995,-0.1956,-0.1951,-0.1947,-0.2015,-0.1923,-0.1921,-0.192,-0.197,-0.1973,-0.1975,0,0,0,0,0,0,-0.194,-0.1947,-0.1993,-0.1971,-0.1977,-0.1985,-0.1997,-0.1997,-0.2001,-0.198,-0.1974,-0.2001,-0.1955,-0.1949,-0.1957,-0.201,-0.1921,-0.1919,-0.1967,-0.1971,-0.1974,-0.2112,0,0,0,0,0,0,-0.1938,-0.1946,-0.1952,-0.1972,-0.1979,-0.2021,-0.1998,-0.1998,-0.2009,-0.2007,-0.1982,-0.1975,-0.1954,-0.196,-0.1955,-0.2006,-0.1918,-0.1964,-0.1969,-0.1973,-0.2105,-0.212,-0.2133,0,0,0,0,0,-0.1935,-0.1949,-0.1952,-0.1958,-0.1988,-0.2023,-0.2026,-0.2026,-0.201,-0.2023,-0.2013,-0.1976,-0.1984,-0.196,-0.1954,-0.2006,-0.1962,-0.1968,-0.1973,-0.2098,-0.2117,-0.2133,0,0,0,0,0,0,-0.1916,-0.195,-0.1952,-0.1974,-0.2002,-0.2021,-0.203,-0.2031,-0.2034,-0.2028,-0.1999,-0.1993,-0.2022,-0.1992,-0.1967,-0.2034,-0.197,-0.1974,-0.2067,-0.2084,-0.2098,-0.2109,-0.1917,0,0,0,0,0,-0.1918,-0.1936,-0.197,-0.1986,-0.2002,-0.2017,-0.2028,-0.2035,-0.2043,-0.2043,-0.2031,-0.2025,-0.2041,-0.2043,-0.2039,-0.207,-0.2031,-0.2101,-0.2116,-0.2128,-0.2134,-0.2131,-0.2145,-0.1992,-0.1992,-0.1992,0,0,-0.1913,-0.1935,-0.1943,-0.1984,-0.2,-0.205,-0.202,-0.2048,-0.2094,-0.2036,-0.2078,-0.2066,-0.2058,-0.2103,-0.2113,-0.2084,-0.2152,-0.2134,-0.2145,-0.2144,-0.2138,-0.2152,-0.2165,-0.1996,-0.1995,-0.1994,0,0,-0.1929,-0.1936,-0.1967,-0.2002,-0.2042,-0.2063,-0.2076,-0.2106,-0.212,-0.2162,-0.2144,-0.2168,-0.2171,-0.2196,-0.2205,-0.2292,-0.2223,-0.2288,-0.2373,-0.2372,-0.2384,-0.2394,-0.2364,-0.2371,-0.23,-0.2301,-0.2301,0,-0.1924,-0.1972,-0.198,-0.2034,-0.2071,-0.2077,-0.2135,-0.2164,-0.2194,-0.2215,-0.2189,-0.2233,-0.2226,-0.2301,-0.2344,-0.2327,-0.2294,-0.2312,-0.239,-0.24,-0.2408,-0.2374,-0.2379,-0.2308,-0.2307,-0.2306,-0.2306,0,-0.1977,-0.2022,-0.2045,-0.2119,-0.2159,-0.2205,-0.2258,-0.2292,-0.2303,-0.2328,-0.2383,-0.2382,-0.2403,-0.2425,-0.2416,-0.2489,-0.2436,-0.2404,-0.2347,-0.2431,-0.239,-0.2393,-0.2318,-0.2316,-0.2313,-0.2312,0,0,-0.1945,-0.2061,-0.2067,-0.2122,-0.221,-0.2246,-0.2334,-0.2408,-0.2451,-0.2483,-0.2536,-0.2596,-0.2571,-0.2581,-0.2574,-0.2594,-0.2638,-0.2535,-0.2532,-0.2504,-0.2609,-0.2536,-0.253,-0.2613,-0.2615,-0.2616,-0.2556,0,-0.1984,-0.2094,-0.2144,-0.2252,-0.2317,-0.2368,-0.2447,-0.2513,-0.2547,-0.2595,-0.2619,-0.2654,-0.264,-0.2645,-0.2673,-0.2637,-0.2652,-0.2655,-0.2531,-0.2527,-0.2451,-0.2535,-0.2335,-0.2262,-0.2559,-0.2559,-0.2559,0,-0.2021,-0.2093,-0.2203,-0.2329,-0.2359,-0.2423,-0.2526,-0.2595,-0.2673,-0.2696,-0.2739,-0.2732,-0.2786,-0.2743,-0.2741,-0.2737,-0.2692,-0.2662,-0.2657,-0.2541,-0.246,-0.2226,-0.2256,-0.2563,-0.2563,-0.2563,-0.2563,0,-0.1992,-0.2131,-0.2215,-0.2261,-0.2404,-0.2455,-0.2521,-0.2614,-0.2664,-0.2742,-0.2761,-0.2813,-0.2806,-0.2793,-0.2736,-0.2736,-0.2698,-0.2679,-0.2572,-0.2564,-0.2346,-0.2317,-0.2677,-0.2677,-0.2677,-0.2677,-0.2677,0,-0.2016,-0.208,-0.2204,-0.2253,-0.2336,-0.2443,-0.2522,-0.2591,-0.2683,-0.2723,-0.2789,-0.2806,-0.2816,-0.279,-0.2751,-0.2663,-0.2701,-0.26,-0.2557,-0.2388,-0.2365,-0.2583,-0.2573,-0.2675,-0.2675,-0.2676,-0.2676,0,-0.1969,-0.2059,-0.2149,-0.2288,-0.2324,-0.2373,-0.2498,-0.2554,-0.2648,-0.2696,-0.2717,-0.2787,-0.2756,-0.2742,-0.2696,-0.2651,-0.2593,-0.2545,-0.2338,-0.2274,-0.2457,-0.2455,-0.244,-0.2437,-0.2435,-0.2433,-0.2431,0,-0.1957,-0.2,-0.2126,-0.2163,-0.2219,-0.2309,-0.2369,-0.2504,-0.255,-0.2664,-0.2666,-0.2687,-0.2661,-0.2587,-0.2507,-0.2421,-0.25,-0.2202,-0.2193,-0.2479,-0.2439,-0.2441,-0.2442,-0.1947,-0.1941,-0.1937,-0.1933,0,-0.1908,-0.1941,-0.2003,-0.2076,-0.2138,-0.2206,-0.2293,-0.233,-0.2466,-0.2515,-0.2549,-0.2549,-0.2489,-0.2322,-0.2229,-0.2155,-0.2212,-0.211,-0.2448,-0.2054,-0.2014,-0.1975,-0.1992,-0.1893,-0.1897,-0.19,-0.1902,-0.1904,-0.1831,-0.1843,-0.1909,-0.1963,-0.2029,-0.2065,-0.2072,-0.2162,-0.2206,-0.2218,-0.2324,-0.2241,-0.2233,-0.1984,-0.1893,-0.1813,-0.196,-0.1875,-0.1889,-0.1907,-0.1877,-0.1837,-0.1675,-0.1678,-0.168,-0.1682,-0.1684,0,-0.1722,-0.175,-0.1797,-0.1845,-0.1852,-0.1933,-0.1986,-0.1943,-0.1926,-0.1962,-0.1952,-0.1736,-0.1648,-0.164,-0.146,-0.1449,-0.143,-0.1393,-0.1367,-0.1406,-0.1441,-0.1389,-0.1057,-0.1055,-0.1054,-0.1053,0,0,-0.1665,-0.1655,-0.1679,-0.164,-0.1675,-0.1616,-0.1609,-0.1549,-0.1526,-0.1425,-0.1378,-0.1497,-0.156,-0.1297,-0.1254,-0.1126,-0.1249,-0.1065,-0.1561,-0.1565,-0.1598,-0.1705,-0.1666,0,0,0,0,0]},{"header":{"parameterUnit":"m.s-1","parameterCategory":2,"la1":30.2991,"la2":30.254,"lo1":-89.0895,"lo2":-89.0444,"dy":0.0017,"dx":0.0017,"nx":28,"ny":28,"refTime":"2024-04-29T09:00:00:Z","depth":"2","parameterNumber":3,"parameterNumberName":"V-component_of_CURRENTS"},"data":[0,0,0,0,0,0,0,0,0,0,0,0,0,0,0,0,0,0,0,0,0,0,0,0,0,0,0,0,0,0,0,0,0,0,0,0,0,0,0,0,0,0,0,0,0,0,0,0,0,0,0,0,0,0,0,0,0,0,-0.0123,-0.0122,0,-0.0031,-0.003,-0.0029,0.0027,0.0027,0.0027,0.0027,0.0149,0.0152,0.0155,0,0,0,0,0,0,0,0,0,0,0,0,0,-0.0201,-0.02,-0.0123,-0.0122,-0.0121,-0.0031,-0.003,-0.0028,0.0026,0.0027,0.0027,0.0027,0.0148,0.0151,0.0155,0,0,0,0,0,0,0,0,0,0,0,0,0,-0.0143,-0.02,-0.0123,-0.0083,-0.0078,-0.0031,-0.003,-0.0028,0.0026,0.0027,0.0027,0.0027,0.0147,0.0151,0.0156,0.0177,0,0,0.0169,0.0171,0,0,0,0,0,0,0,0,-0.0147,-0.0141,-0.009,-0.0086,-0.0081,-0.0014,-0.0012,0.0042,0.0026,-0.0013,0.0027,0.0027,0.0097,0.0105,0.0122,0.0183,0.0188,0.017,0.0173,0.0175,0.0176,0,0,0,0,0,0,0,-0.0151,-0.0144,-0.0086,-0.0089,-0.0083,-0.0052,-0.0044,-0.0002,0.004,-0.0009,-0.0005,0.0004,0.01,0.0118,0.0126,0.019,0.017,0.0174,0.0177,0.0178,0.0316,0.0317,0,0,0,0,0,0,-0.0166,-0.0148,-0.0089,-0.0083,-0.0114,-0.0051,-0.0042,-0.0035,0.0039,0.005,0.0004,0.0006,0.011,0.012,0.013,0.0178,0.0175,0.0179,0.0181,0.0315,0.0316,0.0317,0,0,0,0,0,0,-0.0168,-0.0162,-0.0093,-0.0114,-0.0103,-0.0051,-0.0043,-0.0034,-0.0015,0.0048,0.006,0.0012,0.011,0.0124,0.0177,0.0183,0.0181,0.0185,0.0314,0.0315,0.0316,0.0263,0,0,0,0,0,0,-0.0171,-0.0163,-0.0166,-0.0115,-0.0102,-0.0074,-0.0043,-0.0032,-0.001,-0.0006,0.006,0.0071,0.0112,0.017,0.0182,0.0189,0.0189,0.0313,0.0314,0.0316,0.0264,0.0263,0.0262,0,0,0,0,0,-0.0174,-0.0179,-0.0167,-0.016,-0.0107,-0.0074,-0.0065,-0.0026,-0.001,-0.0007,0.0048,0.0069,0.0189,0.0174,0.0188,0.0196,0.0312,0.0314,0.0316,0.0264,0.0263,0.0262,0,0,0,0,0,0,-0.0217,-0.0173,-0.0158,-0.0151,-0.012,-0.0065,-0.0059,-0.0031,0.0014,0.002,0.0081,0.0097,0.0144,0.0182,0.0164,0.0244,0.0254,0.0259,0.021,0.021,0.0208,0.019,0.0192,0,0,0,0,0,-0.0229,-0.0221,-0.0175,-0.0172,-0.0158,-0.011,-0.0093,-0.0067,-0.0019,0.0,0.0049,0.0107,0.0163,0.0194,0.0241,0.0285,0.0324,0.0301,0.03,0.0299,0.0295,0.038,0.0386,0.0324,0.0324,0.0324,0,0,-0.0247,-0.022,-0.0218,-0.018,-0.0153,-0.0142,-0.0099,-0.0078,-0.0063,0.0007,0.0042,0.01,0.0174,0.0223,0.0248,0.0255,0.0333,0.0301,0.0299,0.0296,0.0383,0.0389,0.0394,0.0325,0.0325,0.0325,0,0,-0.0284,-0.0255,-0.0264,-0.024,-0.0204,-0.017,-0.0168,-0.0116,-0.0086,-0.0044,0.0016,0.0082,0.0152,0.0217,0.0258,0.0281,0.0321,0.0293,0.0276,0.0359,0.0364,0.037,0.0404,0.0413,0.0296,0.0296,0.0296,0,-0.031,-0.0313,-0.0263,-0.0264,-0.0252,-0.0188,-0.0197,-0.0153,-0.009,-0.0059,-0.0043,0.0096,0.0153,0.024,0.0248,0.0278,0.0314,0.027,0.0356,0.0362,0.0369,0.0403,0.0413,0.0294,0.0294,0.0294,0.0294,0,-0.0348,-0.0355,-0.0357,-0.0337,-0.0313,-0.0311,-0.0248,-0.0215,-0.017,-0.0119,-0.0033,0.0061,0.0144,0.0178,0.022,0.0299,0.0304,0.0338,0.0352,0.0371,0.0406,0.0418,0.029,0.0291,0.0292,0.0292,0,0,-0.0401,-0.0391,-0.0393,-0.0408,-0.0354,-0.0344,-0.0305,-0.025,-0.0219,-0.0137,-0.0084,0.0032,0.009,0.0141,0.0215,0.0294,0.0364,0.0327,0.0332,0.0346,0.0513,0.053,0.0544,0.0415,0.0417,0.0419,0.0509,0,-0.0453,-0.0492,-0.0456,-0.0486,-0.0503,-0.0428,-0.0395,-0.0329,-0.0255,-0.0185,-0.0059,0.0015,0.0075,0.0119,0.0209,0.0333,0.0397,0.0334,0.0505,0.0509,0.0512,0.056,0.0493,0.057,0.0521,0.0523,0.0524,0,-0.0502,-0.0525,-0.0572,-0.0571,-0.0567,-0.0559,-0.0492,-0.0457,-0.0326,-0.0263,-0.0152,-0.0056,0.0079,0.0122,0.0335,0.029,0.0385,0.0479,0.0485,0.0529,0.055,0.0551,0.0594,0.0545,0.0543,0.0542,0.054,0,-0.0577,-0.0603,-0.065,-0.065,-0.0628,-0.0618,-0.0592,-0.0482,-0.0445,-0.0311,-0.0257,-0.0088,0.0001,0.0162,0.0349,0.0344,0.0574,0.0594,0.0693,0.0693,0.0684,0.068,0.0729,0.0729,0.0728,0.0728,0.0728,0,-0.0648,-0.0685,-0.0693,-0.0721,-0.0758,-0.0701,-0.0694,-0.0631,-0.0525,-0.0473,-0.031,-0.022,0.0019,0.0182,0.0338,0.0554,0.0567,0.0696,0.0734,0.0661,0.0655,0.0676,0.0669,0.0732,0.0731,0.073,0.073,0,-0.0724,-0.0729,-0.0789,-0.0796,-0.0801,-0.0824,-0.0788,-0.0766,-0.0652,-0.0576,-0.0537,-0.0312,-0.0087,0.0142,0.0411,0.0537,0.0741,0.0804,0.0679,0.0701,0.0796,0.0785,0.0924,0.0926,0.0927,0.0929,0.093,0,-0.0767,-0.0809,-0.0864,-0.0904,-0.0913,-0.0933,-0.0936,-0.0847,-0.0806,-0.0624,-0.0584,-0.0355,-0.0164,0.0231,0.0495,0.077,0.0782,0.0842,0.0837,0.0802,0.0824,0.0811,0.0798,0.0788,0.0788,0.0788,0.0788,0,-0.0853,-0.0869,-0.0921,-0.1011,-0.1044,-0.1075,-0.1063,-0.1046,-0.0917,-0.0815,-0.0631,-0.0465,-0.0077,0.0239,0.0582,0.0726,0.0799,0.0848,0.0879,0.075,0.0683,0.0701,0.0692,0.0786,0.0786,0.0786,0.0786,0.0786,-0.0907,-0.0968,-0.1037,-0.1117,-0.1161,-0.1189,-0.1199,-0.1139,-0.1065,-0.0874,-0.0697,-0.0414,-0.0102,0.0401,0.0637,0.0835,0.0849,0.0883,0.088,0.0878,0.0848,0.0788,0.0901,0.0902,0.0903,0.0903,0.0904,0,-0.0979,-0.1045,-0.1136,-0.1219,-0.1278,-0.1275,-0.1262,-0.1219,-0.1123,-0.0902,-0.0686,-0.0332,0.0032,0.0346,0.0671,0.0878,0.0849,0.0884,0.0809,0.0809,0.0809,0.0773,0.0808,0.0809,0.0809,0.081,0,0,-0.1017,-0.1125,-0.118,-0.1302,-0.1352,-0.1395,-0.1385,-0.1271,-0.1106,-0.0881,-0.0659,-0.0334,0.0053,0.0268,0.0518,0.0676,0.0682,0.0671,0.0721,0.0601,0.06,0.0778,0.0719,0,0,0,0,0]}],[{"header":{"parameterUnit":"m.s-1","parameterCategory":2,"la1":30.2991,"la2":30.254,"lo1":-89.0895,"lo2":-89.0444,"dy":0.0017,"dx":0.0017,"nx":28,"ny":28,"refTime":"2024-04-29T09:00:00:Z","depth":"4","parameterNumber":2,"parameterNumberName":"U-component_of_CURRENTS"},"data":[0,0,0,0,0,0,0,0,0,0,0,0,0,0,0,0,0,0,0,0,0,0,0,0,0,0,0,0,0,0,0,0,0,0,0,0,0,0,0,0,0,0,0,0,0,0,0,0,0,0,0,0,0,0,0,0,0,0,-0.142,-0.142,0,-0.146,-0.146,-0.1461,-0.1482,-0.1482,-0.1483,-0.1483,-0.1472,-0.1471,-0.1471,0,0,0,0,0,0,0,0,0,0,0,0,0,-0.1336,-0.1337,-0.142,-0.142,-0.1421,-0.146,-0.146,-0.1461,-0.1482,-0.1482,-0.1483,-0.1483,-0.1472,-0.1471,-0.1471,0,0,0,0,0,0,0,0,0,0,0,0,0,-0.1371,-0.1337,-0.142,-0.1438,-0.144,-0.146,-0.146,-0.1461,-0.1482,-0.1482,-0.1483,-0.1483,-0.1472,-0.1472,-0.1471,-0.1458,0,0,-0.1468,-0.1468,0,0,0,0,0,0,0,0,-0.1369,-0.1374,-0.1435,-0.1437,-0.144,-0.1468,-0.1427,-0.1458,-0.1482,-0.1464,-0.1483,-0.1483,-0.1467,-0.1467,-0.1471,-0.1458,-0.1457,-0.1468,-0.1468,-0.1467,-0.1467,0,0,0,0,0,0,0,-0.1367,-0.1372,-0.1433,-0.1436,-0.1438,-0.1436,-0.1441,-0.1433,-0.146,-0.1465,-0.1468,-0.1476,-0.1468,-0.1472,-0.1471,-0.1457,-0.1468,-0.1468,-0.1467,-0.1467,-0.1507,-0.1508,0,0,0,0,0,0,-0.1368,-0.137,-0.1432,-0.1435,-0.1407,-0.1437,-0.1443,-0.1457,-0.1461,-0.1464,-0.1475,-0.1477,-0.1473,-0.1472,-0.147,-0.1535,-0.1467,-0.1467,-0.1466,-0.1505,-0.1507,-0.1509,0,0,0,0,0,0,-0.1366,-0.1373,-0.1431,-0.1405,-0.1412,-0.1439,-0.1454,-0.1458,-0.1484,-0.147,-0.1471,-0.1501,-0.1473,-0.1472,-0.1494,-0.1532,-0.1466,-0.1466,-0.1504,-0.1506,-0.1508,-0.1613,0,0,0,0,0,0,-0.1363,-0.1372,-0.1393,-0.1405,-0.1414,-0.146,-0.1454,-0.1458,-0.1488,-0.1491,-0.1491,-0.149,-0.1473,-0.1495,-0.1493,-0.1529,-0.1465,-0.1502,-0.1505,-0.1507,-0.1607,-0.1618,-0.1628,0,0,0,0,0,-0.136,-0.1383,-0.1394,-0.1402,-0.1438,-0.1461,-0.1465,-0.1483,-0.1489,-0.1507,-0.1515,-0.1491,-0.1512,-0.1496,-0.1493,-0.153,-0.15,-0.1504,-0.1507,-0.1603,-0.1616,-0.1628,0,0,0,0,0,0,-0.1358,-0.1388,-0.14,-0.1432,-0.1454,-0.1466,-0.1486,-0.1497,-0.1518,-0.1525,-0.1509,-0.1509,-0.1541,-0.152,-0.1503,-0.1549,-0.1502,-0.1505,-0.1576,-0.1588,-0.1598,-0.1596,-0.1464,0,0,0,0,0,-0.1368,-0.1394,-0.1418,-0.1446,-0.1459,-0.1477,-0.1493,-0.1506,-0.1521,-0.1532,-0.1536,-0.1539,-0.1549,-0.1557,-0.1555,-0.158,-0.1555,-0.1601,-0.1611,-0.162,-0.1616,-0.1618,-0.1628,-0.152,-0.152,-0.152,0,0,-0.1377,-0.1396,-0.1413,-0.1448,-0.1465,-0.1496,-0.1488,-0.152,-0.1554,-0.1525,-0.1574,-0.1573,-0.1563,-0.1597,-0.1609,-0.1587,-0.1641,-0.1625,-0.1632,-0.1623,-0.1623,-0.1633,-0.1642,-0.1523,-0.1522,-0.1522,0,0,-0.1395,-0.1424,-0.1449,-0.1474,-0.1508,-0.1522,-0.1538,-0.1566,-0.1589,-0.1631,-0.1624,-0.1648,-0.1661,-0.1667,-0.167,-0.1732,-0.1693,-0.1735,-0.1789,-0.1792,-0.1801,-0.1808,-0.1806,-0.1812,-0.1744,-0.1744,-0.1744,0,-0.1407,-0.1441,-0.146,-0.1491,-0.1518,-0.1539,-0.1573,-0.1602,-0.1638,-0.1656,-0.1659,-0.1696,-0.1694,-0.1732,-0.1764,-0.1755,-0.1747,-0.1747,-0.1806,-0.1813,-0.1818,-0.1813,-0.1819,-0.1749,-0.1749,-0.1748,-0.1748,0,-0.1436,-0.1476,-0.1493,-0.1542,-0.1574,-0.1607,-0.1648,-0.1684,-0.1715,-0.1735,-0.1784,-0.1792,-0.1808,-0.1824,-0.1819,-0.1865,-0.1843,-0.1818,-0.1776,-0.1835,-0.1827,-0.1831,-0.1757,-0.1755,-0.1753,-0.1752,0,0,-0.1424,-0.15,-0.1507,-0.154,-0.1605,-0.1628,-0.1695,-0.1744,-0.1779,-0.1825,-0.1866,-0.191,-0.1909,-0.1912,-0.1912,-0.1928,-0.1977,-0.1902,-0.19,-0.1901,-0.1985,-0.1853,-0.1844,-0.1966,-0.1967,-0.1968,-0.1969,0,-0.144,-0.1498,-0.1539,-0.1606,-0.164,-0.1691,-0.1747,-0.1799,-0.1838,-0.1882,-0.1909,-0.1944,-0.1945,-0.1963,-0.1984,-0.1971,-0.1989,-0.1978,-0.1925,-0.1923,-0.1799,-0.1844,-0.1971,-0.1971,-0.1972,-0.1973,-0.1973,0,-0.1445,-0.1487,-0.1551,-0.1635,-0.1655,-0.1707,-0.1784,-0.1835,-0.1901,-0.1933,-0.1976,-0.1988,-0.2035,-0.2018,-0.2041,-0.2036,-0.2023,-0.2012,-0.2011,-0.1847,-0.1796,-0.1894,-0.1979,-0.1979,-0.1978,-0.1978,-0.1977,0,-0.1399,-0.1491,-0.154,-0.1571,-0.1671,-0.1718,-0.1774,-0.1849,-0.1887,-0.1963,-0.1991,-0.2039,-0.2063,-0.2066,-0.2056,-0.2055,-0.2057,-0.2043,-0.1912,-0.1903,-0.1976,-0.1967,-0.2051,-0.2051,-0.2051,-0.2051,-0.2051,0,-0.1379,-0.1422,-0.1529,-0.1555,-0.1616,-0.1702,-0.1766,-0.1825,-0.1905,-0.1936,-0.2011,-0.203,-0.2077,-0.2081,-0.2068,-0.1995,-0.2066,-0.192,-0.1892,-0.2022,-0.2019,-0.1979,-0.1971,-0.2051,-0.2051,-0.2051,-0.2051,0,-0.1307,-0.1382,-0.1441,-0.1555,-0.1594,-0.1634,-0.1751,-0.1786,-0.1884,-0.1926,-0.1954,-0.2033,-0.2033,-0.2051,-0.2046,-0.1988,-0.1942,-0.1898,-0.2039,-0.2019,-0.1788,-0.1785,-0.1753,-0.1748,-0.1744,-0.174,-0.1738,0,-0.1271,-0.1294,-0.1411,-0.1445,-0.15,-0.1582,-0.163,-0.1752,-0.1781,-0.1902,-0.1898,-0.1952,-0.1981,-0.1874,-0.191,-0.1865,-0.1841,-0.1816,-0.1802,-0.178,-0.1757,-0.1761,-0.1763,-0.1731,-0.173,-0.1729,-0.1728,0,-0.1186,-0.1235,-0.1278,-0.1344,-0.1407,-0.1461,-0.154,-0.1557,-0.1681,-0.1792,-0.1795,-0.1797,-0.179,-0.178,-0.1752,-0.1722,-0.1833,-0.1774,-0.1783,-0.1769,-0.1754,-0.1736,-0.1743,-0.1714,-0.1716,-0.1718,-0.1718,0,-0.111,-0.1114,-0.1172,-0.1216,-0.1288,-0.1307,-0.1378,-0.1422,-0.1473,-0.1621,-0.1616,-0.1684,-0.1767,-0.1704,-0.168,-0.1636,-0.1613,-0.1568,-0.1586,-0.1602,-0.155,-0.1508,-0.1366,0,0,0,0,0,-0.1021,-0.1007,-0.104,-0.1079,-0.1146,-0.1181,-0.1293,-0.1369,-0.1503,-0.146,-0.1536,-0.1526,-0.1511,-0.1549,-0.1467,-0.1594,-0.1606,-0.1493,-0.1562,-0.1638,-0.1654,-0.1604,0,0,0,0,0,0,-0.096,-0.0975,-0.0985,-0.0945,-0.0949,-0.1001,-0.1067,-0.117,-0.1158,-0.1308,-0.1302,-0.1419,-0.1414,-0.1514,-0.1425,-0.1434,-0.1446,-0.1544,-0.154,-0.1629,-0.1643,-0.1656,-0.1611,0,0,0,0,0]},{"header":{"parameterUnit":"m.s-1","parameterCategory":2,"la1":30.2991,"la2":30.254,"lo1":-89.0895,"lo2":-89.0444,"dy":0.0017,"dx":0.0017,"nx":28,"ny":28,"refTime":"2024-04-29T09:00:00:Z","depth":"4","parameterNumber":3,"parameterNumberName":"V-component_of_CURRENTS"},"data":[0,0,0,0,0,0,0,0,0,0,0,0,0,0,0,0,0,0,0,0,0,0,0,0,0,0,0,0,0,0,0,0,0,0,0,0,0,0,0,0,0,0,0,0,0,0,0,0,0,0,0,0,0,0,0,0,0,0,-0.0092,-0.0092,0,-0.0028,-0.0027,-0.0027,0.0006,0.0006,0.0006,0.0007,0.0102,0.0104,0.0107,0,0,0,0,0,0,0,0,0,0,0,0,0,-0.0167,-0.0166,-0.0093,-0.0092,-0.0091,-0.0028,-0.0027,-0.0027,0.0006,0.0006,0.0006,0.0007,0.0101,0.0104,0.0107,0,0,0,0,0,0,0,0,0,0,0,0,0,-0.0122,-0.0166,-0.0093,-0.0067,-0.0064,-0.0029,-0.0027,-0.0026,0.0006,0.0006,0.0006,0.0007,0.01,0.0104,0.0107,0.013,0,0,0.0119,0.0121,0,0,0,0,0,0,0,0,-0.0124,-0.0119,-0.0072,-0.0069,-0.0065,-0.0019,-0.0019,0.0027,0.0006,-0.002,0.0007,0.0007,0.0064,0.0071,0.0083,0.0134,0.0138,0.0119,0.0122,0.0123,0.0124,0,0,0,0,0,0,0,-0.0128,-0.0122,-0.0067,-0.0071,-0.0067,-0.0052,-0.0046,-0.001,0.0022,-0.0018,-0.0015,-0.0008,0.0066,0.0079,0.0085,0.014,0.0119,0.0123,0.0125,0.0126,0.0207,0.0206,0,0,0,0,0,0,-0.0137,-0.0125,-0.0069,-0.0065,-0.0096,-0.0051,-0.0044,-0.0034,0.0021,0.0029,-0.0009,-0.0007,0.0072,0.0081,0.0089,0.01,0.0123,0.0127,0.0129,0.0207,0.0207,0.0206,0,0,0,0,0,0,-0.0138,-0.0132,-0.0072,-0.0094,-0.0085,-0.005,-0.0039,-0.0033,-0.0021,0.0027,0.0036,-0.0004,0.0073,0.0084,0.0119,0.0104,0.0128,0.0132,0.0207,0.0207,0.0206,0.0134,0,0,0,0,0,0,-0.0141,-0.0133,-0.0133,-0.0094,-0.0084,-0.0061,-0.0039,-0.0031,-0.0017,-0.0014,0.0035,0.0044,0.0074,0.0113,0.0123,0.011,0.0135,0.0207,0.0207,0.0207,0.0136,0.0131,0.0127,0,0,0,0,0,-0.0144,-0.0141,-0.0133,-0.0127,-0.0083,-0.0062,-0.0055,-0.003,-0.0017,-0.0018,0.0021,0.0042,0.0118,0.0116,0.0127,0.0115,0.0207,0.0207,0.0207,0.0139,0.0132,0.0127,0,0,0,0,0,0,-0.0174,-0.0137,-0.0127,-0.0114,-0.0096,-0.0056,-0.0053,-0.0033,-0.0004,-0.0,0.0047,0.0059,0.008,0.0113,0.011,0.0139,0.0164,0.0166,0.0108,0.0103,0.0098,0.0077,0.0138,0,0,0,0,0,-0.0181,-0.0171,-0.0137,-0.013,-0.0122,-0.0089,-0.0077,-0.0061,-0.0028,-0.0015,0.002,0.0058,0.0088,0.0107,0.0138,0.0161,0.0201,0.016,0.0155,0.015,0.0142,0.0194,0.0193,0.0205,0.0205,0.0205,0,0,-0.0193,-0.017,-0.0166,-0.0137,-0.0119,-0.0122,-0.0082,-0.0069,-0.0072,-0.0008,0.0001,0.0042,0.0091,0.0109,0.0122,0.0135,0.0169,0.015,0.0146,0.014,0.0193,0.0192,0.0191,0.0205,0.0205,0.0205,0,0,-0.022,-0.0191,-0.0199,-0.0188,-0.0166,-0.0145,-0.0144,-0.011,-0.0096,-0.0075,-0.0035,-0.0002,0.0047,0.0075,0.0098,0.0088,0.014,0.0099,0.006,0.011,0.0109,0.0109,0.0161,0.0166,0.0098,0.0098,0.0098,0,-0.024,-0.0244,-0.0201,-0.0211,-0.0211,-0.0161,-0.0182,-0.0157,-0.0118,-0.0107,-0.0085,-0.0012,0.0027,0.0053,0.0048,0.0075,0.0117,0.0075,0.0102,0.0103,0.0104,0.0158,0.0164,0.0094,0.0095,0.0095,0.0095,0,-0.0275,-0.0287,-0.0291,-0.0289,-0.028,-0.0287,-0.0253,-0.0239,-0.021,-0.0184,-0.0149,-0.0086,-0.0043,-0.0026,0.0009,0.0032,0.0065,0.0088,0.0113,0.0098,0.0156,0.0164,0.0089,0.0091,0.0092,0.0092,0,0,-0.0304,-0.0317,-0.0322,-0.0346,-0.0325,-0.0324,-0.0322,-0.0306,-0.0301,-0.0254,-0.0241,-0.0184,-0.0139,-0.011,-0.0057,-0.0012,0.0033,0.0036,0.0041,0.008,0.0152,0.0138,0.0146,0.0065,0.0066,0.0067,0.019,0,-0.0354,-0.0405,-0.0388,-0.0439,-0.0465,-0.0423,-0.0425,-0.0399,-0.0359,-0.033,-0.0258,-0.0225,-0.0173,-0.0147,-0.0096,0.0008,0.0051,-0.0002,0.0167,0.0172,0.0155,0.0153,0.0069,0.0196,0.0198,0.02,0.0201,0,-0.0398,-0.0429,-0.0494,-0.0524,-0.0529,-0.0544,-0.0531,-0.0526,-0.0465,-0.0428,-0.0373,-0.0308,-0.0232,-0.0189,-0.0029,-0.0061,0.0029,0.0108,0.0115,0.0131,0.0172,0.0216,0.0216,0.0215,0.0214,0.0213,0.0212,0,-0.0449,-0.0501,-0.056,-0.0572,-0.0591,-0.0605,-0.0605,-0.0561,-0.0553,-0.0489,-0.0457,-0.0361,-0.0292,-0.0176,-0.0009,-0.0015,0.0174,0.0188,0.0257,0.0258,0.0266,0.0265,0.028,0.0279,0.0279,0.0279,0.0278,0,-0.0505,-0.0553,-0.0594,-0.0628,-0.0686,-0.0669,-0.07,-0.0674,-0.0631,-0.0612,-0.0514,-0.0458,-0.0283,-0.015,-0.002,0.0151,0.017,0.0247,0.0285,0.0234,0.0228,0.0273,0.027,0.0284,0.0282,0.0282,0.0281,0,-0.0551,-0.058,-0.0653,-0.0699,-0.0718,-0.0755,-0.0774,-0.0779,-0.0724,-0.0689,-0.067,-0.0516,-0.0334,-0.0156,0.0059,0.0144,0.0299,0.0349,0.0288,0.0322,0.0351,0.0343,0.0429,0.043,0.043,0.043,0.0431,0,-0.058,-0.0626,-0.0712,-0.0759,-0.0786,-0.0836,-0.0861,-0.0834,-0.0822,-0.0716,-0.0689,-0.052,-0.0399,-0.009,0.0079,0.0318,0.0342,0.0409,0.0362,0.0336,0.0365,0.0357,0.0349,0.0431,0.0431,0.0431,0.0432,0,-0.0633,-0.0665,-0.0723,-0.0823,-0.0876,-0.0928,-0.0951,-0.0945,-0.0884,-0.0841,-0.0683,-0.0523,-0.0313,-0.0087,0.0104,0.0268,0.0356,0.0413,0.0413,0.037,0.034,0.0366,0.0358,0.0433,0.0433,0.0433,0.0433,0,-0.0662,-0.0714,-0.0791,-0.0871,-0.0945,-0.0982,-0.0995,-0.095,-0.0924,-0.0786,-0.0735,-0.0503,-0.0364,-0.0112,0.0062,0.0225,0.0249,0.0274,0.0281,0.0281,0.0191,0.0128,0.0186,0,0,0,0,0,-0.0687,-0.0745,-0.0832,-0.0911,-0.098,-0.1017,-0.1033,-0.102,-0.0955,-0.0849,-0.0785,-0.0587,-0.0301,-0.0169,-0.0007,0.004,0.0253,0.0228,0.0278,0.044,0.0439,0.0355,0,0,0,0,0,0,-0.0703,-0.0788,-0.0834,-0.0921,-0.0975,-0.1037,-0.1046,-0.1007,-0.0928,-0.0841,-0.0676,-0.0578,-0.0292,-0.0387,-0.0011,0.0038,0.0083,0.037,0.0373,0.0441,0.044,0.0439,0.0352,0,0,0,0,0]}]]